MM1PTT-13 Weather Reports


time (UTC)temp
C
wind
direction
speed
KPH
gust
KPH
rain 1hr
cm
rain 24hr
cm
rain mn
cm
humidity
%
barometer
mb
20260508142543 15 285 4.8 6.4 0.00 0.00 0.05 50 987.8
20260508142043 14 327 6.4 8.0 0.00 0.00 0.05 50 987.5
20260508141548 15 352 3.2 6.4 0.00 0.00 0.05 49 987.8
20260508141043 15 181 4.8 8.0 0.00 0.00 0.05 50 987.5
20260508140543 14 293 4.8 6.4 0.00 0.00 0.05 51 987.5
20260508140044 14 292 8.0 11.3 0.00 0.00 0.05 50 987.8
20260508135543 13 343 9.7 12.9 0.00 0.00 0.05 52 987.5
20260508135042 13 241 9.7 12.9 0.00 0.00 0.05 52 987.5
20260508134543 14 332 4.8 8.0 0.00 0.00 0.05 52 987.5
20260508134043 14 294 6.4 8.0 0.00 0.00 0.05 49 987.5
20260508133543 14 5 1.6 3.2 0.00 0.00 0.05 51 987.5
20260508133043 15 117 4.8 6.4 0.00 0.00 0.05 51 987.5
20260508132542 14 294 3.2 4.8 0.00 0.00 0.05 53 987.5
20260508132043 13 284 8.0 11.3 0.00 0.00 0.05 52 987.5
20260508131545 13 276 6.4 8.0 0.00 0.00 0.05 53 987.5
20260508131043 13 285 4.8 6.4 0.00 0.00 0.05 54 987.1
20260508130543 13 305 4.8 8.0 0.00 0.00 0.05 53 987.5
20260508130044 14 317 9.7 11.3 0.00 0.00 0.05 53 987.5
20260508125543 14 267 8.0 9.7 0.00 0.00 0.05 52 987.5
20260508125043 14 299 6.4 9.7 0.00 0.00 0.05 50 987.5
20260508124543 14 323 8.0 11.3 0.00 0.00 0.05 49 987.1
20260508124043 15 298 6.4 11.3 0.00 0.00 0.05 51 987.5
20260508123545 14 335 9.7 14.5 0.00 0.00 0.05 51 987.5
20260508123043 14 120 3.2 6.4 0.00 0.00 0.05 53 987.1
20260508122543 14 281 3.2 6.4 0.00 0.00 0.05 54 987.5
20260508122043 13 258 4.8 8.0 0.00 0.00 0.05 54 987.5
20260508121542 13 315 11.3 16.1 0.00 0.00 0.05 56 987.5
20260508121043 13 279 3.2 3.2 0.00 0.00 0.05 56 987.1
20260508120543 14 356 4.8 8.0 0.00 0.00 0.05 55 987.1
20260508120042 13 237 3.2 3.2 0.00 0.00 0.05 57 987.5
20260508115542 13 320 6.4 11.3 0.00 0.00 0.05 58 987.1
20260508115042 13 248 8.0 9.7 0.00 0.00 0.05 55 987.5
20260508114545 13 241 3.2 3.2 0.00 0.00 0.05 56 987.1
20260508114042 13 347 8.0 11.3 0.00 0.00 0.05 54 987.1
20260508113543 13 323 8.0 9.7 0.00 0.00 0.05 55 987.1
20260508113042 13 299 8.0 11.3 0.00 0.00 0.05 58 986.8
20260508112542 13 204 4.8 8.0 0.00 0.00 0.05 57 987.1
20260508112043 15 152 3.2 6.4 0.00 0.00 0.05 50 986.8
20260508111545 14 292 4.8 8.0 0.00 0.00 0.05 51 987.1
20260508111042 14 315 8.0 11.3 0.00 0.00 0.05 51 986.8
20260508110542 13 281 6.4 9.7 0.00 0.00 0.05 53 986.8
20260508110042 13 62 3.2 3.2 0.00 0.00 0.05 53 986.8
20260508105542 13 315 12.9 16.1 0.00 0.00 0.05 53 987.1
20260508105042 13 294 6.4 9.7 0.00 0.00 0.05 54 986.8
20260508104543 13 330 6.4 8.0 0.00 0.00 0.05 54 986.8
20260508104043 13 280 9.7 16.1 0.00 0.00 0.05 52 986.5
20260508103544 13 265 4.8 6.4 0.00 0.00 0.05 53 986.8
20260508103043 13 270 4.8 8.0 0.00 0.00 0.05 53 986.8
20260508102542 13 61 3.2 4.8 0.00 0.00 0.05 55 986.8
20260508102043 12 315 4.8 8.0 0.00 0.00 0.05 55 986.5
20260508101542 12 289 11.3 14.5 0.00 0.00 0.05 54 986.8
20260508101044 12 300 8.0 11.3 0.00 0.00 0.05 56 986.5
20260508100543 12 316 1.6 3.2 0.00 0.00 0.05 60 986.8
20260508100043 12 352 6.4 9.7 0.00 0.00 0.05 60 986.8
20260508095544 12 356 6.4 9.7 0.00 0.00 0.05 59 986.5
20260508095044 12 141 8.0 12.9 0.00 0.00 0.05 59 986.5
20260508094543 12 292 4.8 8.0 0.00 0.00 0.05 60 986.5
20260508094043 12 248 3.2 8.0 0.00 0.00 0.05 60 986.5
20260508093543 12 346 4.8 8.0 0.00 0.00 0.05 60 986.1
20260508093043 13 60 4.8 8.0 0.00 0.00 0.05 60 986.5
20260508092542 12 240 4.8 6.4 0.00 0.00 0.05 61 986.5
20260508092042 12 243 4.8 9.7 0.00 0.00 0.05 63 986.5
20260508091542 12 179 8.0 14.5 0.00 0.00 0.05 61 986.1
20260508091043 13 292 6.4 11.3 0.00 0.00 0.05 60 986.1
20260508090543 13 283 4.8 6.4 0.00 0.00 0.05 60 986.1
20260508090043 13 295 4.8 8.0 0.00 0.00 0.05 61 986.1
20260508085545 12 283 4.8 8.0 0.00 0.00 0.05 61 986.1
20260508085043 13 292 4.8 11.3 0.00 0.00 0.05 64 986.1
20260508084542 12 323 8.0 11.3 0.00 0.00 0.05 63 986.1
20260508084043 12 13 1.6 3.2 0.00 0.00 0.05 66 986.1
20260508083542 12 177 3.2 3.2 0.00 0.00 0.05 67 986.1
20260508083044 11 292 3.2 8.0 0.00 0.00 0.05 69 986.1
20260508082543 11 207 6.4 8.0 0.00 0.00 0.05 71 986.1
20260508082043 11 249 3.2 4.8 0.00 0.00 0.05 72 986.1
20260508081542 11 69 3.2 4.8 0.00 0.00 0.05 73 986.1
20260508081042 11 301 3.2 4.8 0.00 0.00 0.05 74 986.1
20260508080543 11 50 1.6 3.2 0.00 0.00 0.05 72 985.8
20260508080043 11 14 6.4 8.0 0.00 0.00 0.05 73 985.8
20260508075543 11 302 4.8 8.0 0.00 0.00 0.05 74 985.8
20260508075042 11 249 4.8 6.4 0.00 0.00 0.05 74 985.8
20260508074544 11 240 6.4 6.4 0.00 0.00 0.05 75 985.8
20260508074042 10 283 3.2 4.8 0.00 0.00 0.05 77 985.8
20260508073543 10 131 3.2 4.8 0.00 0.00 0.05 77 985.8
20260508073042 10 24 6.4 11.3 0.00 0.00 0.05 77 985.4
20260508072548 10 265 1.6 3.2 0.00 0.00 0.05 78 985.4
20260508072042 10 270 3.2 3.2 0.00 0.00 0.05 79 985.4
20260508071544 10 300 3.2 3.2 0.00 0.00 0.05 81 985.4
20260508071042 10 281 3.2 4.8 0.00 0.00 0.05 81 985.4
20260508070542 10 344 1.6 3.2 0.00 0.00 0.05 82 985.4
20260508070043 10 292 3.2 3.2 0.00 0.00 0.05 83 985.1
20260508065542 10 20 4.8 6.4 0.00 0.00 0.05 84 984.8
20260508065043 10 267 4.8 6.4 0.00 0.00 0.05 84 985.1
20260508064542 10 105 1.6 1.6 0.00 0.00 0.05 84 984.8
20260508064042 9 226 3.2 4.8 0.00 0.00 0.05 85 984.8
20260508063542 9 228 3.2 3.2 0.00 0.00 0.05 85 984.8
20260508063042 9 103 1.6 3.2 0.00 0.00 0.05 86 984.8
20260508062544 9 278 1.6 3.2 0.00 0.00 0.05 86 984.8
20260508062043 9 270 1.6 3.2 0.00 0.00 0.05 86 984.8
20260508061542 9 328 1.6 3.2 0.00 0.00 0.05 87 984.4
20260508061042 9 182 1.6 3.2 0.00 0.00 0.05 88 984.8
20260508060542 9 242 1.6 3.2 0.00 0.00 0.05 89 984.8
20260508060044 9 210 3.2 4.8 0.00 0.00 0.05 90 984.8
20260508055543 9 138 0.0 3.2 0.00 0.00 0.05 91 984.4
20260508055042 9 123 0.0 1.6 0.00 0.00 0.05 91 984.1
20260508054542 9 26 0.0 0.0 0.00 0.00 0.05 91 984.4
20260508054043 8 137 1.6 3.2 0.00 0.00 0.05 91 984.1
20260508053543 8 306 0.0 0.0 0.00 0.00 0.05 91 984.1
20260508053043 8 304 1.6 1.6 0.00 0.00 0.05 91 984.4
20260508052543 8 330 1.6 3.2 0.00 0.00 0.05 91 984.1
20260508052045 8 279 3.2 4.8 0.00 0.00 0.05 91 984.1
20260508051543 8 349 3.2 4.8 0.00 0.00 0.05 92 984.1
20260508051043 8 349 1.6 3.2 0.00 0.00 0.05 92 984.1
20260508050543 8 296 1.6 3.2 0.00 0.00 0.05 92 983.7
20260508050043 9 289 3.2 3.2 0.00 0.00 0.05 91 983.7
20260508045542 8 339 0.0 0.0 0.00 0.00 0.05 91 983.7
20260508045042 8 73 0.0 1.6 0.00 0.00 0.05 91 983.7
20260508044542 8 237 3.2 4.8 0.00 0.00 0.05 91 983.7
20260508044043 8 238 0.0 1.6 0.00 0.00 0.05 91 983.7
20260508043542 8 160 1.6 3.2 0.00 0.00 0.05 91 983.7
20260508043046 8 74 0.0 0.0 0.00 0.00 0.05 91 983.7
20260508042542 8 41 0.0 0.0 0.00 0.00 0.05 91 983.7
20260508042043 8 60 0.0 0.0 0.00 0.00 0.05 91 983.7
20260508041544 8 4 0.0 0.0 0.00 0.00 0.05 91 983.4
20260508041042 8 353 0.0 1.6 0.00 0.00 0.05 91 983.4
20260508040542 8 49 0.0 0.0 0.00 0.00 0.05 91 983.7
20260508040043 8 8 0.0 1.6 0.00 0.00 0.05 90 983.4
20260508035542 8 1 0.0 0.0 0.00 0.00 0.05 90 983.7
20260508035043 8 330 0.0 1.6 0.00 0.00 0.05 90 983.4
20260508034542 8 332 1.6 3.2 0.00 0.00 0.05 89 983.4
20260508034042 9 319 1.6 3.2 0.00 0.00 0.05 89 983.4
20260508033542 9 76 0.0 1.6 0.00 0.00 0.05 89 983.1
20260508033042 9 267 1.6 3.2 0.00 0.00 0.05 88 983.4
20260508032543 9 221 1.6 3.2 0.00 0.00 0.05 88 983.4
20260508032043 9 15 0.0 1.6 0.00 0.00 0.05 88 983.4
20260508031542 9 307 3.2 3.2 0.00 0.00 0.05 88 983.1
20260508031043 9 300 1.6 3.2 0.00 0.00 0.05 87 983.4
20260508030543 9 118 0.0 1.6 0.00 0.00 0.05 87 983.1
20260508030043 9 293 3.2 3.2 0.00 0.00 0.05 87 983.1
20260508025542 9 168 4.8 6.4 0.00 0.00 0.05 87 983.1
20260508025042 9 213 3.2 3.2 0.00 0.00 0.05 86 983.1
20260508024543 9 145 3.2 4.8 0.00 0.00 0.05 86 983.1
20260508024043 9 176 1.6 4.8 0.00 0.00 0.05 86 983.1
20260508023543 9 163 3.2 4.8 0.00 0.00 0.05 86 983.1
20260508023042 9 280 1.6 3.2 0.00 0.00 0.05 86 983.1
20260508022542 9 171 1.6 3.2 0.00 0.00 0.05 86 983.1
20260508022042 9 197 4.8 6.4 0.00 0.00 0.05 86 983.1
20260508021544 9 137 1.6 3.2 0.00 0.00 0.05 86 983.1
20260508021043 9 81 1.6 3.2 0.00 0.00 0.05 86 983.1
20260508020543 8 283 4.8 4.8 0.00 0.00 0.05 86 982.7
20260508020042 8 283 0.0 1.6 0.00 0.00 0.05 86 983.1
20260508015542 8 112 0.0 1.6 0.00 0.00 0.05 86 983.1
20260508015042 8 251 3.2 3.2 0.00 0.00 0.05 86 983.1
20260508014542 8 98 0.0 1.6 0.03 0.00 0.05 86 983.1
20260508014043 8 74 0.0 0.0 0.03 0.00 0.05 86 983.1
20260508013543 8 270 1.6 3.2 0.03 0.00 0.05 86 983.1
20260508013043 8 240 4.8 8.0 0.03 0.00 0.05 86 983.1
20260508012542 8 179 3.2 6.4 0.03 0.00 0.05 86 983.1
20260508012043 8 198 0.0 1.6 0.03 0.00 0.05 86 983.1
20260508011544 8 298 1.6 3.2 0.03 0.00 0.05 86 983.1
20260508011043 8 264 1.6 3.2 0.03 0.00 0.05 86 982.7
20260508010543 8 265 0.0 1.6 0.03 0.00 0.05 87 983.1
20260508010042 8 85 0.0 1.6 0.03 0.00 0.05 86 983.1
20260508005543 8 259 1.6 3.2 0.03 0.00 0.05 86 982.7
20260508005042 8 91 3.2 3.2 0.03 0.00 0.05 86 983.1
20260508004543 8 326 0.0 1.6 0.03 0.00 0.05 86 983.1
20260508004043 8 161 1.6 3.2 0.00 0.00 0.05 85 983.1
20260508003543 9 345 0.0 0.0 0.00 0.00 0.05 84 983.1
20260508003043 9 253 3.2 4.8 0.00 0.00 0.03 83 983.1
20260508002542 9 214 1.6 3.2 0.00 0.00 0.00 82 983.1
20260508002042 9 290 0.0 1.6 0.00 0.00 0.00 81 983.1
20260508001542 9 133 0.0 1.6 0.00 0.00 0.00 80 983.1
20260508001042 10 86 1.6 3.2 0.00 0.00 0.00 79 983.1
20260508000542 10 266 1.6 3.2 0.00 0.00 0.00 78 983.1
20260508000043 10 270 1.6 3.2 0.00 0.00 0.00 75 983.1
20260507235543 10 279 3.2 4.8 0.00 0.00 0.00 75 983.1
20260507235042 10 162 3.2 3.2 0.00 0.00 0.00 75 982.7
20260507234542 10 212 3.2 4.8 0.00 0.00 0.00 75 982.7
20260507234042 10 106 3.2 3.2 0.00 0.00 0.00 75 983.1
20260507233543 10 106 0.0 1.6 0.00 0.00 0.00 75 983.1
20260507233044 10 71 0.0 1.6 0.00 0.00 0.00 76 982.7
20260507232542 10 170 0.0 1.6 0.00 0.00 0.00 76 982.7
20260507232043 10 155 0.0 1.6 0.00 0.00 0.00 75 983.1
20260507231543 10 198 1.6 3.2 0.00 0.00 0.00 75 983.1
20260507231042 10 185 3.2 4.8 0.00 0.00 0.00 75 982.7
20260507230542 10 188 0.0 1.6 0.00 0.00 0.00 76 982.7
20260507230043 10 195 0.0 1.6 0.00 0.00 0.33 76 983.1
20260507225542 10 213 1.6 3.2 0.00 0.00 0.33 76 983.1
20260507225042 10 177 0.0 0.0 0.00 0.00 0.33 76 983.1
20260507224543 10 308 1.6 3.2 0.00 0.00 0.33 75 982.7
20260507224043 10 163 0.0 1.6 0.00 0.00 0.33 76 982.7
20260507223544 10 237 3.2 3.2 0.00 0.00 0.33 76 983.1
20260507223042 10 131 6.4 8.0 0.00 0.00 0.33 76 982.7
20260507222543 10 242 1.6 3.2 0.00 0.00 0.33 77 982.7
20260507222042 10 101 1.6 3.2 0.00 0.00 0.33 77 982.7
20260507221542 10 206 3.2 3.2 0.00 0.00 0.33 77 983.1
20260507221042 10 186 1.6 3.2 0.00 0.00 0.33 77 982.7
20260507220543 10 213 0.0 1.6 0.00 0.00 0.33 77 982.7
20260507220043 10 103 0.0 0.0 0.00 0.00 0.33 77 982.7
20260507215543 10 216 1.6 3.2 0.00 0.00 0.33 77 982.7
20260507215043 10 293 0.0 1.6 0.00 0.00 0.33 77 982.7
20260507214542 10 150 1.6 8.0 0.00 0.00 0.33 77 982.7
20260507214042 10 33 0.0 1.6 0.00 0.00 0.33 76 982.4
20260507213542 10 162 4.8 8.0 0.00 0.00 0.33 76 982.7
20260507213043 10 188 1.6 3.2 0.00 0.00 0.33 76 982.7
20260507212544 10 206 1.6 3.2 0.00 0.00 0.33 76 982.4
20260507212042 10 166 3.2 3.2 0.00 0.00 0.33 76 982.7
20260507211543 10 163 3.2 4.8 0.00 0.00 0.33 76 982.7
20260507211043 10 157 6.4 8.0 0.00 0.00 0.33 76 982.7
20260507210543 10 212 6.4 16.1 0.00 0.00 0.33 75 982.4
20260507210043 10 154 4.8 6.4 0.00 0.00 0.33 75 982.4
20260507205542 10 146 3.2 4.8 0.00 0.00 0.33 75 982.4
20260507205043 10 212 4.8 9.7 0.00 0.00 0.33 75 982.7
20260507204543 11 191 4.8 8.0 0.00 0.00 0.33 74 982.7
20260507203543 11 195 4.8 6.4 0.00 0.00 0.33 72 982.4
20260507203043 11 215 1.6 3.2 0.00 0.00 0.33 72 982.4
20260507202543 11 214 3.2 3.2 0.00 0.00 0.33 71 982.7
20260507202043 11 231 0.0 1.6 0.00 0.00 0.33 71 982.4
20260507201542 11 125 3.2 4.8 0.00 0.00 0.33 70 982.4
20260507201043 11 245 4.8 6.4 0.00 0.00 0.33 70 982.4
20260507200543 11 257 6.4 9.7 0.00 0.00 0.33 69 982.4
20260507200043 11 172 8.0 9.7 0.00 0.00 0.33 69 982.4
20260507195543 11 216 4.8 6.4 0.00 0.00 0.33 68 982.1
20260507195043 11 240 3.2 4.8 0.00 0.00 0.33 68 982.4
20260507194543 11 218 11.3 16.1 0.00 0.00 0.33 68 982.1
20260507194043 11 97 6.4 12.9 0.00 0.00 0.33 68 982.1
20260507193542 11 135 3.2 4.8 0.00 0.00 0.33 68 982.1
20260507192043 11 175 3.2 4.8 0.00 0.00 0.33 67 982.1
20260507191543 12 255 3.2 3.2 0.00 0.00 0.33 66 982.1
20260507190542 12 248 6.4 11.3 0.00 0.00 0.33 65 982.1
20260507190043 12 352 3.2 4.8 0.00 0.00 0.33 64 982.1
20260507185542 12 146 3.2 4.8 0.00 0.00 0.33 63 982.1
20260507185043 12 120 8.0 11.3 0.00 0.00 0.33 62 982.1
20260507184043 12 208 4.8 8.0 0.00 0.00 0.33 60 982.1
20260507183542 12 223 3.2 4.8 0.00 0.00 0.33 60 982.1
20260507183042 12 204 4.8 6.4 0.00 0.00 0.33 59 982.1
20260507182042 12 281 6.4 8.0 0.00 0.00 0.33 57 982.1
20260507181543 12 168 1.6 3.2 0.00 0.00 0.33 56 982.1
20260507181045 12 266 3.2 6.4 0.00 0.00 0.33 56 982.1
20260507180543 12 144 6.4 8.0 0.00 0.00 0.33 55 981.7
20260507180043 12 272 4.8 8.0 0.00 0.00 0.33 54 982.1
20260507175543 12 210 4.8 8.0 0.00 0.00 0.33 53 981.7
20260507175043 12 157 4.8 8.0 0.00 0.00 0.33 52 981.7
20260507174543 12 160 4.8 9.7 0.00 0.00 0.33 52 981.7
20260507174043 12 263 8.0 9.7 0.00 0.00 0.33 53 982.1
20260507173544 12 183 3.2 8.0 0.00 0.00 0.33 53 982.1
20260507173043 12 113 8.0 16.1 0.00 0.00 0.33 53 982.1
20260507172543 12 103 4.8 6.4 0.00 0.00 0.33 53 982.1
20260507172042 12 163 8.0 11.3 0.00 0.00 0.33 53 982.1
20260507171542 12 176 8.0 14.5 0.00 0.00 0.33 54 981.7
20260507171043 12 245 4.8 8.0 0.00 0.00 0.33 53 982.1
20260507170543 13 152 3.2 6.4 0.00 0.00 0.33 53 981.7
20260507170042 13 119 6.4 14.5 0.00 0.00 0.33 52 982.1
20260507165543 13 240 3.2 4.8 0.00 0.00 0.33 53 982.1
20260507165043 13 207 9.7 14.5 0.00 0.00 0.33 53 982.1
20260507164543 13 171 8.0 11.3 0.00 0.00 0.33 52 981.7
20260507164043 13 311 6.4 9.7 0.00 0.00 0.33 52 981.7
20260507163543 13 116 3.2 8.0 0.00 0.00 0.33 54 982.1
20260507163043 13 153 6.4 14.5 0.00 0.00 0.33 55 981.7
20260507162543 13 70 4.8 8.0 0.00 0.00 0.33 56 981.7
20260507162043 13 109 6.4 9.7 0.00 0.00 0.33 55 981.7
20260507161543 13 221 8.0 16.1 0.00 0.00 0.33 56 981.7
20260507161043 13 172 4.8 4.8 0.00 0.00 0.33 59 982.1
20260507160544 13 213 6.4 9.7 0.00 0.00 0.33 59 981.7
20260507160042 13 270 12.9 16.1 0.00 0.00 0.33 60 981.7
20260507155542 13 271 4.8 11.3 0.00 0.00 0.33 64 982.1
20260507155043 13 177 6.4 11.3 0.00 0.00 0.33 66 981.7
20260507154543 13 261 8.0 12.9 0.00 0.00 0.33 66 982.1
20260507154043 13 210 3.2 4.8 0.00 0.00 0.33 67 982.1
20260507153543 13 175 8.0 16.1 0.00 0.00 0.33 65 982.1
20260507153043 14 257 6.4 9.7 0.00 0.00 0.33 66 982.1
20260507152543 14 228 8.0 11.3 0.00 0.00 0.33 66 982.1
20260507152043 14 243 8.0 11.3 0.00 0.00 0.33 65 982.1
20260507151543 13 267 6.4 8.0 0.00 0.00 0.33 69 982.1
20260507151043 13 171 4.8 6.4 0.00 0.00 0.33 69 982.1
20260507150544 12 231 11.3 14.5 0.00 0.00 0.33 72 982.1
20260507150043 12 121 4.8 8.0 0.00 0.00 0.33 77 982.1
20260507145542 12 312 1.6 3.2 0.00 0.00 0.33 77 982.4
20260507145045 12 248 4.8 9.7 0.03 0.00 0.33 77 982.4
20260507144544 12 332 9.7 12.9 0.03 0.00 0.33 77 982.4
20260507144043 12 181 1.6 3.2 0.03 0.00 0.33 78 982.1
20260507143542 12 235 3.2 6.4 0.05 0.00 0.33 78 982.1